Zurück zum Katalog

STARLINK-5432

AktivKommunikationVLEO
NORAD 54848·PAYLOAD·🇺🇸 United States

Gestartet Dec 28, 2022 von Cape Canaveral Space Force Station

Loading…

Nächste Überflüge (nächste 24 Stunden)

TLE

AktuellSource: CelesTrak SupGP

Epoche: Sep 15, 2026, 02:11 UTC

1 54848C 22177AE  26258.09145833  .00059264  00000+0  21465-2 0  2587
2 54848  42.9997 132.0369 0001465 251.1602 197.4808 15.27548898    13

Verfolge STARLINK-5432 in Echtzeit mit AllMySat

Download on the App Store